GW6561 Weather Reports


Display with metric or nautical units.
time (UTC)temp
F
wind
direction
speed
MPH
gust
MPH
rain 1hr
in
rain 24hr
in
rain mn
in
humidity
%
barometer
mb
20260504202007 72 215 15.0 26.0 0.00 0.00 0.00 39 1011.4
20260504201504 72 235 22.0 28.0 0.00 0.00 0.00 37 1011.3
20260504201002 72 290 0.0 13.0 0.00 0.00 0.00 40 1011.6
20260504200458 71 205 22.0 45.0 0.00 0.00 0.00 40 1011.4
20260504195954 71 225 19.0 37.0 0.00 0.00 0.00 38 1011.5
20260504195451 71 266 8.0 47.0 0.00 0.00 0.00 36 1011.7
20260504194947 71 220 29.0 36.0 0.00 0.00 0.00 37 1011.7
20260504194443 71 226 25.0 37.0 0.00 0.00 0.00 41 1011.8
20260504193939 71 201 11.0 26.0 0.00 0.00 0.00 36 1011.9
20260504193437 72 245 28.0 48.0 0.00 0.00 0.00 35 1012.1
20260504192935 71 227 17.0 31.0 0.00 0.00 0.00 40 1012.2
20260504192432 71 248 13.0 20.0 0.00 0.00 0.00 36 1012.3
20260504191931 71 235 16.0 39.0 0.00 0.00 0.00 37 1012.4
20260504191429 71 197 30.0 46.0 0.00 0.00 0.00 36 1012.3
20260504190924 71 226 27.0 45.0 0.00 0.00 0.00 39 1012.4
20260504190420 71 47 10.0 28.0 0.00 0.00 0.00 37 1012.4
20260504185917 71 250 13.0 19.0 0.00 0.00 0.00 37 1012.3
20260504185414 71 189 20.0 44.0 0.00 0.00 0.00 37 1012.4
20260504184910 71 236 30.0 35.0 0.00 0.00 0.00 38 1012.5
20260504184406 71 206 41.0 48.0 0.00 0.00 0.00 37 1012.6
20260504183902 71 218 34.0 39.0 0.00 0.00 0.00 36 1012.8
20260504183359 71 200 15.0 45.0 0.00 0.00 0.00 37 1012.7
20260504182857 72 209 38.0 45.0 0.00 0.00 0.00 37 1012.8
20260504182354 73 270 16.0 25.0 0.00 0.00 0.00 34 1012.9
20260504181850 73 258 10.0 16.0 0.00 0.00 0.00 33 1013.0
20260504181348 72 277 7.0 22.0 0.00 0.00 0.00 37 1012.9
20260504180847 72 210 18.0 32.0 0.00 0.00 0.00 38 1013.1
20260504180345 72 218 15.0 32.0 0.00 0.00 0.00 34 1013.2
20260504175843 72 176 26.0 30.0 0.00 0.00 0.00 35 1013.1
20260504175339 71 223 27.0 41.0 0.00 0.00 0.00 39 1013.3
20260504174838 72 250 6.0 44.0 0.00 0.00 0.00 36 1013.0
20260504174335 71 206 35.0 37.0 0.00 0.00 0.00 38 1013.2
20260504173832 73 221 36.0 59.0 0.00 0.00 0.00 35 1013.3
20260504173328 71 247 7.0 23.0 0.00 0.00 0.00 40 1013.2
20260504172825 72 182 38.0 47.0 0.00 0.00 0.00 34 1013.5
20260504172322 72 255 6.0 17.0 0.00 0.00 0.00 37 1013.7
20260504171818 71 245 17.0 31.0 0.00 0.00 0.00 41 1013.9
20260504171315 71 259 15.0 23.0 0.00 0.00 0.00 36 1013.7
20260504170812 72 204 30.0 35.0 0.00 0.00 0.00 34 1014.0
20260504170309 72 207 13.0 17.0 0.00 0.00 0.00 36 1013.9
20260504160227 68 202 15.0 29.0 0.00 0.00 0.00 41 1014.6
20260504150652 64 200 13.0 26.0 0.00 0.00 0.00 40 1015.6
20260504150149 64 215 16.0 37.0 0.00 0.00 0.00 40 1015.5
20260504141118 59 214 15.0 18.0 0.00 0.00 0.00 49 1015.7
20260504140615 58 227 18.0 21.0 0.00 0.00 0.00 50 1015.6
20260504140110 58 245 10.0 18.0 0.00 0.00 0.00 54 1015.7
20260504130539 53 240 16.0 23.0 0.00 0.00 0.00 56 1016.2
20260504110426 42 320 0.0 0.0 0.00 0.00 0.00 81 1016.1
20260504100343 39 193 6.0 7.0 0.00 0.00 0.00 81 1016.3
20260504081737 40 205 0.0 0.0 0.00 0.00 0.00 77 1016.5
20260504081233 40 218 9.0 9.0 0.00 0.00 0.00 75 1016.4
20260504080730 41 49 9.0 9.0 0.00 0.00 0.00 76 1016.5
20260504080226 41 261 6.0 6.0 0.00 0.00 0.00 77 1016.6
20260504070154 41 171 0.0 0.0 0.00 0.00 0.00 79 1016.5
20260504060119 42 267 0.0 0.0 0.00 0.00 0.00 70 1016.7
20260504050548 44 220 0.0 0.0 0.00 0.00 0.00 71 1016.6
20260504045541 44 265 0.0 6.0 0.00 0.00 0.00 64 1016.7
20260504045037 44 240 0.0 0.0 0.00 0.00 0.00 68 1016.8
20260504044535 43 245 0.0 0.0 0.00 0.00 0.00 68 1016.7
20260504044031 43 230 0.0 0.0 0.00 0.00 0.00 70 1016.5
20260504043528 45 211 7.0 11.0 0.00 0.00 0.00 71 1016.6
20260504043026 45 277 8.0 11.0 0.00 0.00 0.00 62 1016.5
20260504042523 44 284 8.0 9.0 0.00 0.00 0.00 64 1016.5
20260504042020 44 293 0.0 6.0 0.00 0.00 0.00 70 1016.6
20260504041515 44 224 0.0 0.0 0.00 0.00 0.00 72 1016.9
20260504041011 44 224 0.0 0.0 0.00 0.00 0.00 72 1016.7
20260504040509 44 200 6.0 9.0 0.00 0.00 0.00 69 1016.5
20260504040006 44 254 0.0 0.0 0.00 0.00 0.00 65 1016.4
20260504035503 44 224 0.0 6.0 0.00 0.00 0.00 71 1016.4
20260504034959 44 230 0.0 0.0 0.00 0.00 0.00 69 1016.3
20260504034457 44 230 0.0 0.0 0.00 0.00 0.00 69 1016.4
20260504033954 44 267 0.0 0.0 0.00 0.00 0.00 69 1016.3
20260504033451 44 304 0.0 0.0 0.00 0.00 0.00 70 1016.3
20260504032948 44 226 0.0 7.0 0.00 0.00 0.00 70 1016.4
20260504032445 44 264 0.0 0.0 0.00 0.00 0.00 67 1016.3
20260504031942 45 290 0.0 8.0 0.00 0.00 0.00 71 1016.3
20260504031439 45 242 0.0 6.0 0.00 0.00 0.00 66 1016.2
20260504030935 45 277 0.0 0.0 0.00 0.00 0.00 64 1016.1
20260504030433 44 220 0.0 0.0 0.00 0.00 0.00 69 1016.0
20260504025928 45 220 0.0 0.0 0.00 0.00 0.00 74 1016.1
20260504025426 45 233 6.0 7.0 0.00 0.00 0.00 71 1015.9
20260504024923 46 167 0.0 0.0 0.00 0.00 0.00 66 1016.1
20260504024420 46 233 0.0 0.0 0.00 0.00 0.00 67 1015.9
20260504023917 46 233 0.0 0.0 0.00 0.00 0.00 72 1016.2
20260504023413 46 233 0.0 0.0 0.00 0.00 0.00 71 1016.1
20260504022908 46 233 0.0 0.0 0.00 0.00 0.00 68 1016.1
20260504022405 46 233 0.0 0.0 0.00 0.00 0.00 66 1016.3
20260504021902 47 325 0.0 0.0 0.00 0.00 0.00 67 1016.2
20260504021359 47 245 0.0 0.0 0.00 0.00 0.00 59 1016.1
20260504020856 47 254 0.0 7.0 0.00 0.00 0.00 59 1016.2
20260504020353 47 250 0.0 0.0 0.00 0.00 0.00 62 1016.3
20260504015849 47 250 0.0 0.0 0.00 0.00 0.00 64 1016.3
20260504015345 48 240 0.0 0.0 0.00 0.00 0.00 62 1016.2
20260504014841 48 348 0.0 0.0 0.00 0.00 0.00 62 1016.0
20260504014337 48 254 0.0 6.0 0.00 0.00 0.00 63 1016.2
20260504013835 48 250 0.0 0.0 0.00 0.00 0.00 55 1016.0
20260504013333 48 249 0.0 6.0 0.00 0.00 0.00 59 1015.8
20260504012830 48 245 0.0 8.0 0.00 0.00 0.00 56 1016.0
20260504012327 48 264 0.0 0.0 0.00 0.00 0.00 54 1016.0
20260504011825 48 223 0.0 0.0 0.00 0.00 0.00 52 1015.8
20260504011321 49 250 0.0 6.0 0.00 0.00 0.00 52 1015.8
20260504010817 49 220 0.0 6.0 0.00 0.00 0.00 50 1015.7
20260504010312 49 244 6.0 9.0 0.00 0.00 0.00 50 1015.9
20260504005809 49 270 0.0 7.0 0.00 0.00 0.00 50 1015.8
20260504005306 49 245 0.0 6.0 0.00 0.00 0.00 51 1015.7
20260504004804 49 241 6.0 10.0 0.00 0.00 0.00 50 1015.7
20260504004301 50 236 7.0 7.0 0.00 0.00 0.00 49 1015.6
20260504003757 50 250 0.0 7.0 0.00 0.00 0.00 48 1015.6
20260504003255 50 238 0.0 7.0 0.00 0.00 0.00 49 1015.4
20260504002751 51 236 0.0 7.0 0.00 0.00 0.00 48 1015.6
20260504002248 51 233 0.0 7.0 0.00 0.00 0.00 48 1015.4
20260504001746 52 230 0.0 7.0 0.00 0.00 0.00 47 1015.3
20260504001243 52 239 0.0 0.0 0.00 0.00 0.00 46 1015.1
20260504000739 52 232 0.0 6.0 0.00 0.00 0.00 46 1015.2
20260504000236 53 231 0.0 8.0 0.00 0.00 0.00 47 1015.1
20260503235735 53 239 0.0 7.0 0.00 0.00 0.00 46 1015.0
20260503235231 54 253 8.0 8.0 0.00 0.00 0.00 45 1015.0
20260503234729 54 238 0.0 8.0 0.00 0.00 0.00 44 1014.9
20260503234227 55 229 7.0 9.0 0.00 0.00 0.00 46 1015.0
20260503233724 55 269 0.0 6.0 0.00 0.00 0.00 43 1014.9
20260503233219 56 156 0.0 9.0 0.00 0.00 0.00 43 1014.9
20260503232716 56 245 0.0 9.0 0.00 0.00 0.00 42 1015.0
20260503232213 57 264 8.0 11.0 0.00 0.00 0.00 41 1015.0
20260503231712 57 224 8.0 13.0 0.00 0.00 0.00 40 1014.9
20260503231208 57 265 13.0 16.0 0.00 0.00 0.00 39 1014.8
20260503230704 57 264 8.0 9.0 0.00 0.00 0.00 40 1015.1
20260503230202 57 282 0.0 11.0 0.00 0.00 0.00 40 1014.8
20260503225659 58 270 7.0 11.0 0.00 0.00 0.00 40 1014.7
20260503225159 58 275 7.0 10.0 0.00 0.00 0.00 38 1014.8
20260503224657 58 262 9.0 13.0 0.00 0.00 0.00 39 1014.7
20260503224154 58 227 0.0 12.0 0.00 0.00 0.00 38 1014.9
20260503223652 58 266 11.0 19.0 0.00 0.00 0.00 36 1014.8
20260503223149 58 263 7.0 12.0 0.00 0.00 0.00 38 1014.6
20260503222646 58 203 9.0 11.0 0.00 0.00 0.00 40 1014.6
20260503222143 58 278 10.0 19.0 0.00 0.00 0.00 35 1014.7
20260503221642 59 285 12.0 13.0 0.00 0.00 0.00 38 1014.8
20260503221139 59 290 6.0 15.0 0.00 0.00 0.00 35 1014.8
20260503220635 59 264 11.0 17.0 0.00 0.00 0.00 37 1014.7
20260503220132 59 256 10.0 16.0 0.00 0.00 0.00 36 1014.6
20260503215630 59 279 9.0 13.0 0.00 0.00 0.00 36 1015.0
20260503215126 59 299 9.0 17.0 0.00 0.00 0.00 35 1014.9
20260503214625 59 292 11.0 19.0 0.00 0.00 0.00 36 1014.7
20260503214120 59 270 7.0 18.0 0.00 0.00 0.00 35 1014.9
20260503213620 60 280 9.0 20.0 0.00 0.00 0.00 33 1014.7
20260503213116 60 260 9.0 21.0 0.00 0.00 0.00 36 1014.8
20260503212613 59 310 0.0 22.0 0.00 0.00 0.00 34 1014.6
20260503212111 60 266 11.0 22.0 0.00 0.00 0.00 32 1014.6
20260503211608 60 273 13.0 21.0 0.00 0.00 0.00 34 1014.6
20260503211103 60 311 11.0 19.0 0.00 0.00 0.00 37 1014.6
20260503210600 59 270 17.0 19.0 0.00 0.00 0.00 35 1014.6
20260503210056 59 265 10.0 16.0 0.00 0.00 0.00 34 1014.6
20260503205552 59 287 17.0 20.0 0.00 0.00 0.00 34 1014.6
20260503205049 59 274 10.0 20.0 0.00 0.00 0.00 33 1014.6
20260503204546 59 307 0.0 20.0 0.00 0.00 0.00 34 1014.6
20260503204043 60 258 8.0 13.0 0.00 0.00 0.00 37 1014.6
20260503203540 59 277 6.0 18.0 0.00 0.00 0.00 36 1014.9
20260503203037 60 23 7.0 18.0 0.00 0.00 0.00 36 1014.8
20260503202535 60 285 7.0 26.0 0.00 0.00 0.00 33 1014.9